Location: G�ppingen
(48.7089°N, 9.6563°E)
Time: 01:52:54
(UTC+02:00)

M-CUBED/EXP-1 PRIME - Pass Details

Date: 21 March 2019
Orbit: 430 x 671 km, 101.7° (Epoch: 25 April)

Event Time Altitude Azimuth Distance (km) Brightness Sun altitude
Rises 19:04:01 0° 38° (NE) 2,937 ? -5.6°
Reaches altitude 10° 19:07:26 10° 67° (ENE) 2,061 ? -6.1°
Maximum altitude 19:09:28 13° 94° (E) 1,888 ? -6.5°
Drops below altitude 10° 19:11:32 10° 121° (ESE) 2,086 ? -6.8°
Sets 19:15:01 0° 149° (SSE) 3,006 ? -7.4°
